Location: Heidgraben
(53.7081°N, 9.6576°E)
Time: 07:34:28
(UTC+00:00)

Cosmos 2074 Rocket - Pass Details

Date: 05 July 2020
Orbit: 967 x 986 km, 82.9° (Epoch: 14 August)

Event Time Altitude Azimuth Distance (km) Brightness Sun altitude
Exits shadow 21:29:12 - 179° (S) 2,880 5.9 -9.6°
Reaches altitude 10° 21:29:39 10° 179° (S) 2,717 5.8 -9.6°
Maximum altitude 21:35:50 73° 96° (E) 1,019 4.0 -10.0°
Drops below altitude 10° 21:42:03 10° 14° (NNE) 2,725 7.2 -10.4°
Sets 21:44:34 0° 12° (NNE) 3,675 8.0 -10.5°
